sat.trackr.live / text

‹ back to catalog

TRANSPORTER-17 OBJECT BV

NORAD 69936 · 2026-156BV

PAYLOAD ACTIVE UNKNOWN

§ Identity

Operator
Country
TBD
Launch date
2026-07-07
Launch site
AFWTR
Launch vehicle
Mass (kg)
RCS (m²)

External: N2YO · Heavens-Above · Gunter

§ Orbital elements

Epoch: 2026-09-19T23:00:54.043776Z

Period
96.47 min
Inclination
97.7394°
Eccentricity
0.0008285
Mean motion
14.92632033 rev/d
Perigee alt
584.0 km
Apogee alt
595.5 km
Semi-major
6,967.9 km
B*
1.0065e-4
RAAN
162.1977°
Arg perigee
266.5262°
Mean anomaly
93.5010°
Rev number
1,113

§ Raw data

TRANSPORTER-17 OBJECT BV1 69936U 26156BV  26262.95895884  .00000981  00000+0  10065-3 0  99992 69936  97.7394 162.1977 0008285 266.5262  93.5010 14.92632033 11136

JSON: /api/v1/satellites/69936 · /tle

For live sub-satellite position, see the globe view (requires WebGL).

§ Visibility from observer

Set your observer location to see the next 7 days of passes ≥ 10°. The values pass through the URL so the page stays shareable.

No JS? Fill the form by hand. The geolocation button needs JavaScript.